Location: Mahannah Oil Field
(37.4664°N, 96.6003°W)
Time: 15:53:58
(UTC+00:00)

X-37B - Pass Details

Date: 26 November 2020
Orbit: 384 x 390 km, 45.0° (Epoch: 02 January)

Event Time Altitude Azimuth Distance (km) Brightness Sun altitude
Rises 23:32:38 0° 205° (SSW) 2,247 5.3 -5.0°
Reaches altitude 10° 23:35:07 10° 185° (S) 1,400 3.8 -5.4°
Maximum altitude 23:37:21 18° 140° (SE) 1,026 2.5 -5.8°
Drops below altitude 10° 23:39:36 10° 94° (E) 1,408 2.9 -6.3°
Enters shadow 23:40:17 - 87° (E) 1,624 3.1 -6.4°
